Cloud_Cover
22 86 22 0 0 0 0 0 0 0 0 0 0 0 0 0 0 0 0 0 0 0 0 0 2 5 4 5 4 1 0 0 0 0 0 0 0 0 0 0 0 0 0
30 100 35 1 0 0 0 0 0 0 0 0 0 0 0 0 0 0 0 0 0 1 0 1 2 0 0 1 6 2 0 0 0 2 5 2 0 0 0 0 0 0 0
97 98 41 3 0 0 0 0 0 0 0 0 0 0 0 0 0 0 0 0 5 21 88 9 6 5 5 3 0 0 0 0 0 0 4 5 1 0 1 0 0 0 0
58 89 34 4 3 0 0 1 0 0 0 0 0 0 0 0 0 0 0 0 0 68 100 75 8 2 0 0 0 0 2 0 1 0 0 0 0 0 0 0 0 0 0
53 38 20 5 0 0 0 0 4 1 0 0 0 0 0 0 0 0 0 0 0 0 2 2 0 0 0 0 0 0 0 0 0 6 4 0 0 0 0 0 0 0 0
18 9 5 5 2 0 4 0 13 5 0 0 0 0 0 0 0 0 0 0 0 0 0 0 0 0 0 0 0 0 0 0 0 0 0 0 0 0 0 0 0 0 0
9 11 5 4 2 0 5 4 4 0 0 0 0 0 5 5 0 0 0 0 0 0 0 0 0 0 0 0 0 0 0 0 0 0 0 0 0 0 0 0 0 0 0
7 42 19 0 0 0 0 4 1 0 0 0 0 0 6 90 9 0 0 0 0 0 0 0 0 0 0 0 0 0 0 0 1 0 0 0 0 0 0 0 0 0 0
0 37 54 31 0 0 0 34 8 0 0 0 0 0 1 93 66 0 0 4 1 0 4 0 1 0 0 0 0 0 0 0 0 0 0 0 0 0 0 0 0 0 0
0 10 61 60 37 17 1 24 1 0 5 0 0 0 5 92 100 65 4 3 5 5 5 5 4 10 5 5 1 4 0 0 0 0 0 0 0 0 0 0 0 0 0
0 0 34 57 48 25 12 0 0 0 2 0 0 0 1 39 100 100 42 37 5 5 59 19 96 5 16 6 5 5 4 5 0 0 0 0 10 15 31 10 0 24 0
0 0 1 24 28 7 3 5 9 0 1 2 5 1 5 4 44 100 100 100 100 83 100 60 77 100 90 56 64 79 32 9 2 22 74 93 100 86 15 0 1 59 0
0 0 0 0 0 1 0 18 29 36 33 28 5 6 4 2 63 100 100 100 100 100 100 100 100 100 56 79 95 5 5 88 100 91 87 1 10 44 1 0 0 3 4
0 0 0 0 0 0 0 11 15 19 27 27 10 5 15 12 1 91 100 100 100 100 100 100 100 100 97 100 100 100 100 94 100 14 8 2 2 68 5 4 1 3 16
0 0 0 0 0 0 0 0 0 2 4 0 0 3 6 2 3 0 2 60 98 100 81 100 100 100 87 98 100 100 100 97 33 5 72 33 2 5 4 2 4 1 0
0 0 5 1 0 0 0 0 0 0 0 0 0 0 3 5 2 0 0 1 18 92 93 100 95 100 100 100 100 100 100 48 40 8 5 18 0 1 1 55 75 61 11
0 8 99 87 5 1 1 1 2 1 1 0 0 0 1 5 5 22 30 94 94 94 100 100 100 100 75 17 10 100 46 5 4 100 31 4 2 5 23 5 100 100 100
99 14 43 100 100 100 12 0 5 5 4 5 1 0 0 1 17 95 14 100 100 51 98 9 5 1 5 5 5 5 45 14 7 5 5 5 3 21 84 94 94 34 5
100 100 68 24 100 100 99 5 3 6 25 26 15 5 2 3 2 11 8 19 41 10 5 5 5 5 2 1 3 6 13 5 5 5 5 10 15 77 86 96 88 100 48
73 100 100 100 100 100 100 54 21 17 100 100 69 16 29 12 20 35 12 5 5 5 5 0 5 2 5 5 4 5 5 5 5 5 56 62 99 100 100 77 45 49 81
5 58 100 100 100 100 100 100 90 100 100 100 100 95 60 7 18 5 48 5 5 3 5 5 4 5 5 5 5 5 5 5 9 7 57 68 100 66 5 5 28 47 79
84 59 100 100 100 48 46 100 100 100 100 100 100 100 100 38 5 10 6 5 5 6 5 6 45 13 6 14 5 5 6 9 33 88 81 22 13 10 5 5 67 65 32
69 100 96 90 31 95 100 100 100 100 98 100 100 100 100 100 33 16 5 63 5 6 12 35 52 18 88 99 99 76 14 37 57 37 13 90 100 97 59 66 86 100 12
1 7 75 56 8 42 18 45 100 100 72 78 97 100 100 100 100 91 21 48 38 5 5 44 73 49 84 100 100 32 52 100 100 83 99 100 100 100 84 16 11 8 72
2 4 4 31 5 5 5 0 26 5 6 85 100 100 100 100 100 97 80 68 49 52 6 74 20 94 100 100 100 100 100 100 100 100 100 100 100 100 100 13 7 11 68
15 2 5 3 5 10 2 0 4 6 29 100 100 100 100 100 100 100 57 99 32 23 54 36 61 100 89 88 85 54 87 100 99 100 100 100 100 100 91 18 76 6 95